This is the latest recevied weather packets stored in our database for station/object HEBOWX. If no packets are shown the sender has not sent any weather packets the latest 10 day(s).
| Time | Temp. | Humidity | Pressure | Rain* | Wind** | Luminosity | Snow |
|---|---|---|---|---|---|---|---|
| 1778007630 | 12.78° C | 58% | 1013 hPa | 0 mm | - | - | - |
| 1778007329 | 12.78° C | 59% | 1013 hPa | 0 mm | - | - | - |
| 1778007029 | 12.78° C | 59% | 1012.8 hPa | 0 mm | - | - | - |
| 1778006730 | 12.78° C | 59% | 1012.8 hPa | 0 mm | - | - | - |
| 1778006432 | 12.78° C | 60% | 1012.8 hPa | 0 mm | - | - | - |
| 1778006205 | 12.78° C | 60% | 1012.8 hPa | 0 mm | - | - | - |
| 1778006129 | 12.78° C | 60% | 1012.8 hPa | 0 mm | - | - | - |
| 1778005832 | 12.78° C | 60% | 1012.7 hPa | 0 mm | - | - | - |
| 1778005529 | 12.22° C | 60% | 1012.6 hPa | 0 mm | - | - | - |
| 1778005230 | 12.22° C | 60% | 1012.6 hPa | 0 mm | - | - | - |
| 1778004929 | 12.22° C | 60% | 1012.6 hPa | 0 mm | - | - | - |
| 1778004629 | 12.22° C | 61% | 1012.5 hPa | 0 mm | - | - | - |
| 1778004329 | 12.22° C | 1% | 1012.4 hPa | 0 mm | - | - | - |
| 1778004029 | 12.22° C | 62% | 1012.4 hPa | 0 mm | - | - | - |
| 1778003729 | 12.22° C | 61% | 1012.5 hPa | 0 mm | - | - | - |
| 1778003431 | 12.22° C | 60% | 1012.5 hPa | 0 mm | - | - | - |
| 1778003130 | 12.22° C | 62% | 1012.5 hPa | 0 mm | - | - | - |
| 1778002830 | 12.22° C | 62% | 1012.4 hPa | 0 mm | - | - | - |
| 1778002529 | 11.67° C | 61% | 1012.3 hPa | 0 mm | - | - | - |
| 1778002230 | 11.67° C | 62% | 1012.3 hPa | 0 mm | - | - | - |
| 1778001929 | 11.67° C | 62% | 1012.2 hPa | 0 mm | - | - | - |
| 1778001630 | 11.67° C | 62% | 1012.2 hPa | 0 mm | - | - | - |
| 1778001329 | 11.67° C | 63% | 1012.2 hPa | 0 mm | - | - | - |
| 1778001030 | 11.67° C | 64% | 1011.9 hPa | 0 mm | - | - | - |
| 1778000729 | 11.67° C | 64% | 1012.1 hPa | 0 mm | - | - | - |
* Rain latest hour (hover to see other rain measurements)
** Current wind speed in m/s (hover to see current wind gust speed)